Location: Kampung Segan
(3.1399°N, 113.1002°E)
Time: 19:21:12
(UTC+00:00)

Aurora 2 Rocket - Pass Details

Date: 05 August 2024
Orbit: 386 x 1616 km, 25.0° (Epoch: 11 September)

Event Time Altitude Azimuth Distance (km) Brightness Sun altitude
Exits shadow 20:47:17 23° 328° (NNW) 1,543 4.4 -24.3°
Maximum altitude 20:47:28 23° 331° (NNW) 1,530 4.4 -24.3°
Drops below altitude 10° 20:51:06 10° 24° (NNE) 1,953 5.7 -23.4°
Sets 20:53:30 0° 40° (NE) 2,685 6.8 -22.9°
